Tracking 28792 objects as of 25-Apr-2024
HD Live streaming from Space Station
objects crossing your sky now

STARLINK-31594

Track STARLINK-31594 now!
10-day predictions
STARLINK-31594 is classified as:


NORAD ID: 59332
Int'l Code: 2024-057N
Perigee: 423.9 km
Apogee: 425.2 km
Inclination: 43.0 °
Period: 92.9 minutes
Semi major axis: 6795 km
RCS: Unknown
Launch date: March 25, 2024
Source: United States (US)
Launch site: AIR FORCE EASTERN TEST RANGE (AFETR)
Your satellite tracking list
Your tracking list is empty




NASA's NSSDC Master Catalog

Two Line Element Set (TLE):
1 59332U 24057N   24115.43903188 -.00002010  00000-0 -29359-4 0  9996
2 59332  42.9998 138.8007 0000937 253.0781 106.9976 15.49762691  4649
Source of the keplerian elements: AFSPC